User: anonymous   Login
Location: Holcomb Observatory
(44.4922°N, 73.1654°W)
Time: 09:34:24
(UTC-04:00)
Language:

SL-16 R/B - Orbit

View from above orbital plane
View from above orbital plane
View from above satellite
View from above satellite

Ground track
Ground track

The orbit data is extracted from the following two-line orbital elements,

1 27006U 01056F   17146.46959437 -.00000050 +00000-0 -81977-5 0  9997
2 27006 099.3103 288.3209 0014712 009.8993 031.8350 13.70970955773527
Epoch (UTC): 26 May 2017 11:16:12
Eccentricity: 0.0014712
inclination: 99.3103°
perigee height: 985 km
apogee height: 1007 km
right ascension of ascending node: 288.3209°
argument of perigee: 9.8993°
revolutions per day: 13.70970955
mean anomaly at epoch: 31.8350°
orbit number at epoch: 77352

The dashed part of the orbit path shows where the satellite is in the earth's shadow,  

DLR